Regional Weather Roundup
Issued by NWS

Home | Current Version | Previous Version | Text Only | Print | Product List | Glossary On
Versions: 1 2 3 4 5 6 7 8 9 10 11 12 13 14 15 16 17 18 19 20 21 22 23 24 25 26 27 28 29 30 31 32 33 34 35 36 37 38 39 40 41 42 43 44 45 46 47 48 49 50
000
ASUS43 KTOP 222208
RWRKS

WEATHER ROUNDUP FOR KANSAS
NATIONAL WEATHER SERVICE GOODLAND KS
400 PM CST WED NOV 22 2017

NOTE:  "FAIR" INDICATES FEW OR NO CLOUDS BELOW 12,000 FEET WITH NO
SIGNIFICANT WEATHER AND/OR OBSTRUCTIONS TO VISIBILITY.

KSZ001>006-013>018-027>032-041>047-222300-
NORTHWEST KANSAS

CITY           SKY/WX    TMP DP  RH WIND       PRES   REMARKS
GOODLAND       CLOUDY    68  36  30 NW18G26   30.12R
HAYS           SUNNY     61  29  29 SW14      30.12F
HILL CITY      SUNNY     64  34  32 SW9       30.10F
RUSSELL        SUNNY     57  24  28 SW17      30.12F
$$

KSZ061>065-074>080-084>089-222300-
SOUTHWEST KANSAS

CITY           SKY/WX    TMP DP  RH WIND       PRES   REMARKS
DODGE CITY     SUNNY     61  30  31 S16       30.16F
ELKHART        CLOUDY    68  37  32 CALM      30.18S
GARDEN CITY    SUNNY     61  33  35 SW12      30.15F
GREAT BEND     SUNNY     57  24  28 SW18      30.16F
LIBERAL        CLOUDY    63  32  31 W7        30.18F
PRATT          SUNNY     51  16  25 S18       30.20F
$$

KSZ066>073-081>083-090>101-222300-
SOUTHEAST KANSAS

CITY           SKY/WX    TMP DP  RH WIND       PRES   REMARKS
CHANUTE        SUNNY     43  17  35 SW5       30.30S
COFFEYVILLE    SUNNY     45  18  34 CALM      30.30F
HUTCHINSON     SUNNY     50  19  29 S15       30.19F
MEDICINE LODGE   N/A     49  19  30 S12       30.22F
NEWTON         SUNNY     46  19  34 S16       30.21F
PARSONS        SUNNY     44  18  35 SW5       30.31F
WICHITA INTL   MOSUNNY   47  20  34 S12       30.22F
WICHITA JABRA  SUNNY     46  18  32 S12       30.22
WICHITA MCCONL SUNNY     47  16  29 SW10      30.23F
WINFIELD       SUNNY     46  19  34 S8        30.27F
$$

KSZ007>012-019>026-033>040-048>060-102>105-222300-
NORTHEAST KANSAS

CITY           SKY/WX    TMP DP  RH WIND       PRES   REMARKS
CONCORDIA      SUNNY     48  18  30 S15       30.16S
EMPORIA        SUNNY     45  15  30 S10       30.23F
LAWRENCE       PTCLDY    43  16  33 S7        30.24F
MANHATTAN      SUNNY     49  18  29 S13       30.19F
MARYSVILLE     CLEAR     45  19  36 S12       30.17S
OLATHE IND     CLOUDY    41  15  35 S8        30.24F
OLATHE EXE     CLOUDY    40  16  37 S7        30.24F
SALINA         SUNNY     51  20  29 S16       30.19S
TOPEKA BILLARD CLOUDY    45  17  32 S12       30.23F
TOPEKA FORBES  CLEAR     45  16  31 S13       30.22F
$$



USA.gov is the U.S. government's official web portal to all federal, state and local government web resources and services.